Home   Weather   Augusta   Past weeks

Flag for USA Past Weather in Augusta, Maine, USA — Yesterday and Last 2 Weeks

39 °F


Feels Like: 33 °F
Forecast: 35 / 45 °F
Wind: 9 mph from West

Location: Augusta State Airport

Current Time: Oct 25, 2016 at 2:54:21 AM

Latest Report: Oct 25, 2016 at 1:53 AM

Visibility: 10 mi

Pressure: 29.89 "Hg

Humidity: 65%

Dew Point: 28 °F

Location of AugustaLocation

Past Weather in Augusta — Graph


Augusta Temperature Yesterday

Maximum temperature yesterday: 50 °F (at 11:53 AM)
Minimum temperature yesterday: 37 °F (at 6:53 AM)
Average temperature yesterday: 43 °F

High & Low Weather Summary for the Past Weeks

High73 °F (Oct 19, 12:53 PM)100% (Oct 13, 12:53 AM)30.50 "Hg (Oct 13, 12:53 AM)
Low31 °F (Oct 15, 6:53 AM)27% (Oct 17, 3:53 PM)29.05 "Hg (Oct 22, 5:53 PM)
Average52 °F73%29.98 "Hg
* Reported Oct 10 1:53 AM — Oct 25 1:53 AM, Augusta, Weather by CustomWeather, © 2016

Note: Actual official high and low records may vary slightly from our data, if they occured in-between our weather recording intervals... More about our weather records


Augusta Weather History for the Previous 24 Hours

Scroll right to see more
Time TempWeatherWind HumidityBarometerVisibility
1:53 AM
Tue, Oct 25
39 °FOvercast.9 mph65%29.89 "Hg10 mi
12:53 AM40 °FPartly cloudy.8 mph65%29.89 "Hg10 mi
11:53 PM
Mon, Oct 24
40 °FOvercast.13 mph63%29.89 "Hg10 mi
10:53 PM40 °FOvercast.12 mph63%29.89 "Hg10 mi
9:53 PM40 °FClear.13 mph60%29.89 "Hg10 mi
8:53 PM42 °FMostly cloudy.9 mph53%29.87 "Hg10 mi
7:53 PM42 °FMostly cloudy.7 mph55%29.86 "Hg10 mi
6:53 PM43 °FOvercast.12 mph56%29.84 "Hg10 mi
5:53 PM44 °FMostly cloudy.8 mph51%29.82 "Hg10 mi
4:53 PM44 °FOvercast.18 mph51%29.79 "Hg10 mi
3:53 PM45 °FMore clouds than sun.12 mph51%29.77 "Hg10 mi
2:53 PM46 °FOvercast.18 mph50%29.76 "Hg10 mi
1:53 PM46 °FMostly cloudy.15 mph50%29.75 "Hg10 mi
12:53 PM48 °FOvercast.15 mph46%29.73 "Hg10 mi
11:53 AM50 °FPartly sunny.10 mph43%29.71 "Hg10 mi
10:53 AM49 °FSunny.14 mph44%29.71 "Hg10 mi
9:53 AM48 °FPartly sunny.6 mph56%29.70 "Hg10 mi
8:53 AM43 °FSunny.5 mph68%29.71 "Hg10 mi
7:53 AM39 °FPartly sunny.6 mph73%29.70 "Hg10 mi
6:53 AM37 °FClear.3 mph76%29.69 "Hg10 mi
5:53 AM40 °FClear.6 mph68%29.68 "Hg10 mi
4:53 AM41 °FClear.9 mph65%29.68 "Hg10 mi
3:53 AM43 °FClear.7 mph58%29.66 "Hg10 mi
2:53 AM41 °FClear.6 mph60%29.65 "Hg10 mi
Weather by CustomWeather, © 2016

See weather overviewHow to use our weather pages